"2016-07-21 00:00:00",1827289,0.584,65.41,32.61,0.539,25.86,110.7837,26.91,27.77,22.37,0,111.3,13.02,27.75,27.4
"2016-07-21 00:00:30",1827290,0.554,38.84,62.59,0.65,25.48,110.7834,26.91,27.77,23,0,111.3,13.02,27.75,0.8
"2016-07-21 00:01:00",1827291,0.68,28.73,21.63,0.626,25.57,110.7647,26.86,27.77,23.07,0,111.3,13.02,27.71,350.7
"2016-07-21 00:01:30",1827292,0.323,37.85,65.22,0.54,25.47,110.7504,26.82,27.77,23.36,0,111.3,13.02,27.67,359.9
"2016-07-21 00:02:00",1827293,0.976,20.96,43.94,0.949,25.43,110.7241,26.76,27.75,23.52,0,111.3,13.02,27.60,343.0
"2016-07-21 00:02:30",1827294,1.25,18,20.27,0.768,25.18,110.7167,26.74,27.73,24.54,0,111.3,13.02,27.58,340.0
"2016-07-21 00:03:00",1827295,2.393,23.67,15.82,0.922,25.23,110.6926,26.67,27.7,25.3,0,111.3,13.02,27.52,345.7
"2016-07-21 00:03:30",1827296,1.285,36.03,27.11,1.094,25.3,110.6836,26.65,27.68,25.32,0,111.3,13.02,27.50,358.0
"2016-07-21 00:04:00",1827297,2.057,24.38,22.03,1.233,25.34,110.6617,26.6,27.64,25.2,0,111.3,13.02,27.44,346.4
"2016-07-21 00:04:30",1827298,1.332,46.52,17.49,0.756,25.85,110.6451,26.55,27.6,24.29,0,111.3,13.02,27.40,8.5
"2016-07-21 00:05:00",1827299,2.059,32.74,18.27,1.149,26.05,110.6168,26.48,27.57,22.82,0,111.3,13.02,27.32,354.7
"2016-07-21 00:05:30",1827300,2.012,17.38,11.12,1.141,25.33,110.5999,26.44,27.53,25.27,0,111.3,13.02,27.28,339.4
"2016-07-21 00:06:00",1827301,1.442,10.65,10.9,0.908,25.61,110.5806,26.39,27.49,24.47,0,111.3,13.02,27.23,332.6
"2016-07-21 00:06:30",1827302,2.337,17.62,19.3,1.322,25.55,110.553,26.32,27.44,24.7,0,111.3,13.02,27.16,339.6
"2016-07-21 00:07:00",1827303,1.626,26.56,18.35,1.161,25.5,110.5429,26.29,27.39,25.02,0,111.3,13.02,27.13,348.6
"2016-07-21 00:07:30",1827304,1.08,32.46,41.88,0.994,25.57,110.516,26.22,27.36,24.89,0,111.3,13.02,27.06,354.5
"2016-07-21 00:08:00",1827305,0.771,23.85,18.31,0.675,25.43,110.5072,26.2,27.32,25.11,0,111.3,13.02,27.04,345.9
"2016-07-21 00:08:30",1827306,0.607,54.43,32.66,0.527,25.43,110.482,26.13,27.27,25.43,0,111.3,13.02,26.98,16.4
"2016-07-21 00:09:00",1827307,0.97,53.2,18.18,0.378,25.71,110.4735,26.11,27.25,24.88,0,111.3,13.02,26.95,15.2
"2016-07-21 00:09:30",1827308,0.798,53.27,21.84,0.39,25.81,110.4483,26.05,27.2,24.68,0,111.3,13.02,26.89,15.3
"2016-07-21 00:10:00",1827309,0.952,43.88,19.87,0.737,26.07,110.446,26.04,27.16,24.13,0,111.3,13.02,26.88,5.9
"2016-07-21 00:10:30",1827310,1.32,44.44,16.42,0.563,26.23,110.4264,25.99,27.12,23.68,0,111.3,13.02,26.83,6.4
"2016-07-21 00:11:00",1827311,1.385,64.92,8.53,0.3,26.54,110.4146,25.96,27.09,22.95,0,111.3,13.03,26.80,26.9
"2016-07-21 00:11:30",1827312,1.755,67.36,7.27,0.625,26.4,110.4157,25.96,27.07,22.8,0,111.3,13.02,26.81,29.4
"2016-07-21 00:12:00",1827313,1.979,67.27,5.27,0.352,25.83,110.4278,25.99,27.04,24.07,0,111.3,13.03,26.84,29.3
"2016-07-21 00:12:30",1827314,2.097,66.33,5.138,0.341,25.45,110.4235,25.98,27.03,25.31,0,111.3,13.03,26.83,28.3
"2016-07-21 00:13:00",1827315,1.874,62.36,11.4,0.316,25.65,110.4146,25.96,27.02,25.09,0,111.3,13.03,26.80,24.4
"2016-07-21 00:13:30",1827316,1.806,54.79,7.447,0.468,25.39,110.4129,25.96,27.01,25.8,0,111.3,13.03,26.80,16.8
"2016-07-21 00:14:00",1827317,1.452,65.4,8.81,0.323,25.48,110.391,25.9,26.98,25.73,0,111.3,13.03,26.74,27.4
"2016-07-21 00:14:30",1827318,0.752,64.64,23.46,0.342,25.67,110.3797,25.87,26.96,25.5,0,111.3,13.03,26.71,26.6
"2016-07-21 00:15:00",1827319,1.347,62.07,10.27,0.341,26.05,110.3598,25.82,26.91,24.83,0,111.3,13.03,26.66,24.1
"2016-07-21 00:15:30",1827320,1.46,68.15,7.246,0.406,26.36,110.3472,25.79,26.88,23.71,0,111.3,13.03,26.63,30.2
"2016-07-21 00:16:00",1827321,0.789,70.71,15.98,0.451,26.4,110.3525,25.8,26.86,23.33,0,111.3,13.03,26.64,32.7
"2016-07-21 00:16:30",1827322,1.319,62.95,10.6,0.319,26.19,110.3724,25.85,26.84,23.66,0,111.3,13.03,26.69,25.0
"2016-07-21 00:17:00",1827323,1.46,60.66,9.25,0.248,26.47,110.3809,25.87,26.84,23.03,0,111.3,13.03,26.72,22.7
"2016-07-21 00:17:30",1827324,1.305,61.05,10.56,0.391,26.15,110.3809,25.87,26.85,23.37,0,111.3,13.03,26.72,23.0
"2016-07-21 00:18:00",1827325,0.908,59.37,11.32,0.377,25.93,110.3966,25.91,26.86,23.79,0,111.3,13.03,26.76,21.4
"2016-07-21 00:18:30",1827326,1.215,52.54,14.1,0.351,25.49,110.4115,25.95,26.87,24.84,0,111.3,13.03,26.79,14.5
"2016-07-21 00:19:00",1827327,1.264,58.7,15.16,0.672,25.46,110.4146,25.96,26.89,25.12,0,111.3,13.03,26.80,20.7
"2016-07-21 00:19:30",1827328,1.219,61.42,12.49,0.541,25.56,110.4064,25.94,26.89,24.97,0,111.3,13.03,26.78,23.4
"2016-07-21 00:20:00",1827329,1.243,60.72,7.909,0.57,25.9,110.3966,25.91,26.89,24.34,0,111.3,13.03,26.76,22.7
"2016-07-21 00:20:30",1827330,1.531,64.56,7.657,0.462,25.73,110.3839,25.88,26.88,24.64,0,111.3,13.03,26.72,26.6
"2016-07-21 00:21:00",1827331,1.521,60.48,6.394,0.468,25.7,110.3809,25.87,26.88,24.63,0,111.3,13.03,26.72,22.5
"2016-07-21 00:21:30",1827332,1.359,54.84,10.89,0.671,25.59,110.3809,25.87,26.87,25.18,0,111.3,13.02,26.72,16.8
"2016-07-21 00:22:00",1827333,0.63,59.5,14.29,0.351,25.78,110.378,25.87,26.85,24.64,0,111.3,13.02,26.71,21.5
"2016-07-21 00:22:30",1827334,0.254,55.03,34.31,0.39,26.3,110.3707,25.85,26.83,23.61,0,111.3,13.02,26.69,17.0
"2016-07-21 00:23:00",1827335,0.929,53.24,11.19,0.481,25.85,110.3766,25.86,26.83,23.95,0,111.3,13.02,26.70,15.2
"2016-07-21 00:23:30",1827336,1.077,34.53,11.08,0.449,25.37,110.3755,25.86,26.83,25.65,0,111.3,13.02,26.70,356.5
"2016-07-21 00:24:00",1827337,1.129,67.5,7.601,0.339,26.46,110.3612,25.82,26.8,23.58,0,111.3,13.02,26.66,29.5
"2016-07-21 00:24:30",1827338,1.65,66.37,8.07,0.366,25.56,110.3747,25.86,26.81,24.57,0,111.3,13.02,26.70,28.4
"2016-07-21 00:25:00",1827339,1.759,64.2,8.36,0.388,25.37,110.3601,25.82,26.81,25.66,0,111.3,13.02,26.66,26.2
"2016-07-21 00:25:30",1827340,1.398,59.86,8.34,0.627,25.5,110.3472,25.79,26.8,25.57,0,111.3,13.02,26.63,21.9
"2016-07-21 00:26:00",1827341,1.377,64.7,6.7,0.37,25.4,110.3415,25.77,26.79,25.86,0,111.3,13.02,26.61,26.7
"2016-07-21 00:26:30",1827342,0.386,64.74,16.34,0.431,25.52,110.3134,25.7,26.77,25.56,0,111.3,13.02,26.54,26.7
"2016-07-21 00:27:00",1827343,0.654,19.92,48.12,0.781,25.84,110.3129,25.7,26.75,25.28,0,111.3,13.02,26.54,341.9
"2016-07-21 00:27:30",1827344,0.391,44.31,45.05,0.482,25.49,110.3025,25.67,26.74,25.68,0,111.3,13.03,26.51,6.3
"2016-07-21 00:28:00",1827345,0.399,10.62,39.24,0.465,25.41,110.2826,25.62,26.71,26,0,111.3,13.03,26.46,332.6
"2016-07-21 00:28:30",1827346,0.306,32.88,26.63,0.548,25.45,110.2797,25.61,26.68,26.04,0,111.3,13.03,26.45,354.9
"2016-07-21 00:29:00",1827347,1.083,19.02,31.26,0.77,25.73,110.2797,25.61,26.66,25.46,0,111.3,13.03,26.45,341.0
"2016-07-21 00:29:30",1827348,1.159,17.72,14.99,0.874,25.73,110.2797,25.61,26.64,25.52,0,111.3,13.03,26.45,339.7
"2016-07-21 00:30:00",1827349,1.61,23.45,40.26,1.294,25.94,110.275,25.6,26.63,25.29,0,111.3,13.03,26.44,345.5
"2016-07-21 00:30:30",1827350,2.009,9.44,6.908,0.854,26.08,110.2685,25.58,26.62,24.95,0,111.3,13.03,26.43,331.4
"2016-07-21 00:31:00",1827351,2.796,10.21,3.059,0.474,25.83,110.2629,25.57,26.61,25.12,0,111.3,13.03,26.41,332.2
"2016-07-21 00:31:30",1827352,2.8,10.49,2.991,0.704,25.58,110.2585,25.56,26.61,25.84,0,111.3,13.03,26.40,332.5
"2016-07-21 00:32:00",1827353,3.596,12.91,4.479,0.543,25.58,110.254,25.55,26.59,26.08,0,111.3,13.03,26.39,334.9
"2016-07-21 00:32:30",1827354,3.96,8.3,3.017,0.767,25.54,110.2463,25.53,26.59,26.34,0,111.3,13.03,26.37,330.3
"2016-07-21 00:33:00",1827355,3.841,6.783,4.558,0.64,25.27,110.2476,25.53,26.6,26.88,0,111.3,13.03,26.37,328.8
"2016-07-21 00:33:30",1827356,3.785,8.03,5.388,0.747,25.5,110.2501,25.54,26.59,26.85,0,111.3,13.03,26.38,330.0
"2016-07-21 00:34:00",1827357,3.343,11.37,10.65,0.603,25.63,110.2465,25.53,26.55,26.36,0,111.3,13.03,26.37,333.4
"2016-07-21 00:34:30",1827358,3.188,12.54,7.581,0.521,25.32,110.2231,25.47,26.52,27.18,0,111.3,13.03,26.31,334.5
"2016-07-21 00:35:00",1827359,3.941,9.96,6.069,1.309,25.7,110.2195,25.46,26.5,26.62,0,111.3,13.03,26.30,332.0
"2016-07-21 00:35:30",1827360,3.153,14.66,3.748,0.581,25.51,110.2222,25.47,26.5,26.77,0,111.3,13.03,26.31,336.7
"2016-07-21 00:36:00",1827361,2.95,10.68,5.101,0.593,25.63,110.2213,25.46,26.47,26.77,0,111.3,13.03,26.30,332.7
"2016-07-21 00:36:30",1827362,3.8,11.95,6.55,1.029,26.15,110.2059,25.42,26.45,25.89,0,111.3,13.03,26.26,334.0
"2016-07-21 00:37:00",1827363,4.138,13.73,6.786,1.606,25.65,110.2025,25.41,26.44,26.47,0,111.3,13.03,26.26,335.7
"2016-07-21 00:37:30",1827364,2.507,20.82,10.18,0.919,25.58,110.2015,25.41,26.44,26.68,0,111.3,13.03,26.25,342.8
"2016-07-21 00:38:00",1827365,4.278,9.54,12.4,2.116,25.78,110.1965,25.4,26.42,26.81,0,111.3,13.03,26.24,331.5
"2016-07-21 00:38:30",1827366,3.48,9.9,6.195,1.3,25.86,110.1978,25.4,26.42,26.2,0,111.3,13.03,26.24,331.9
"2016-07-21 00:39:00",1827367,4.355,5.421,4.46,1.381,25.78,110.1987,25.41,26.42,26.45,0,111.3,13.03,26.25,327.4
"2016-07-21 00:39:30",1827368,3.97,7.817,4.2,0.486,25.8,110.2025,25.41,26.41,26.36,0,111.3,13.02,26.26,329.8
"2016-07-21 00:40:00",1827369,3.667,7.262,2.876,0.591,25.54,110.2037,25.42,26.41,26.77,0,111.3,13.02,26.26,329.3
"2016-07-21 00:40:30",1827370,3.589,7.4,3.75,0.729,25.61,110.2049,25.42,26.4,26.95,0,111.3,13.02,26.26,329.4
"2016-07-21 00:41:00",1827371,3.712,9.29,4.046,0.656,25.82,110.209,25.43,26.39,26.33,0,111.3,13.02,26.27,331.3
"2016-07-21 00:41:30",1827372,4.135,9.15,5.116,0.509,25.37,110.2099,25.43,26.38,27.23,0,111.3,13.02,26.27,331.1
"2016-07-21 00:42:00",1827373,4.448,5.515,7.046,1.676,25.36,110.208,25.43,26.37,27.6,0,111.2,13.02,26.27,327.5
"2016-07-21 00:42:30",1827374,3.242,7.938,10.01,0.768,25.29,110.1969,25.4,26.37,27.62,0,111.3,13.02,26.24,329.9
"2016-07-21 00:43:00",1827375,3.829,8.16,5.413,0.403,25.73,110.1805,25.36,26.35,27.24,0,111.3,13.02,26.20,330.2
"2016-07-21 00:43:30",1827376,4.128,3.621,4.241,1.132,25.7,110.1808,25.36,26.34,27.04,0,111.2,13.02,26.20,325.6
"2016-07-21 00:44:00",1827377,3.31,10.13,5.606,0.696,25.5,110.1802,25.36,26.32,27.35,0,111.3,13.03,26.20,332.1
"2016-07-21 00:44:30",1827378,3.895,5.598,5.282,1.194,25.54,110.1806,25.36,26.32,27.51,0,111.3,13.03,26.20,327.6
"2016-07-21 00:45:00",1827379,3.851,7.322,7.052,0.699,25.56,110.173,25.34,26.3,27.38,0,111.2,13.03,26.18,329.3
"2016-07-21 00:45:30",1827380,4.3,9.83,4.936,0.594,25.9,110.1649,25.32,26.29,27.06,0,111.3,13.03,26.16,331.8
"2016-07-21 00:46:00",1827381,4.232,3.877,3.786,0.591,26.26,110.1559,25.3,26.28,26.32,0,111.3,13.03,26.14,325.9
"2016-07-21 00:46:30",1827382,5.012,5.104,3.011,1.151,25.85,110.1669,25.32,26.27,26.52,0,111.2,13.03,26.16,327.1
"2016-07-21 00:47:00",1827383,4.637,0.474,2.719,0.776,25.66,110.1708,25.33,26.26,27.18,0,111.2,13.03,26.17,322.5
"2016-07-21 00:47:30",1827384,5.757,2.816,3.792,1.529,26.15,110.1725,25.34,26.26,26.2,0,111.2,13.03,26.18,324.8
"2016-07-21 00:48:00",1827385,4.848,3.423,5.014,1.767,26.21,110.177,25.35,26.25,25.05,0,111.2,13.03,26.19,325.4
"2016-07-21 00:48:30",1827386,5.089,4.423,2.926,1.828,25.99,110.1821,25.36,26.27,25.28,0,111.2,13.03,26.20,326.4
"2016-07-21 00:49:00",1827387,4.463,3.292,4.874,1.405,26.15,110.1821,25.36,26.27,25.22,0,111.2,13.03,26.20,325.3
"2016-07-21 00:49:30",1827388,7.516,357.3,5.756,2.012,26.29,110.1905,25.38,26.29,25.06,0,111.2,13.03,26.22,319.3
"2016-07-21 00:50:00",1827389,9.45,355.1,2.848,0.641,26.43,110.2099,25.43,26.29,24.87,0,111.2,13.03,26.27,317.1
"2016-07-21 00:50:30",1827390,10.62,351.1,3.197,0.944,26.78,110.2158,25.45,26.32,24.54,0,111.2,13.03,26.29,313.1
"2016-07-21 00:51:00",1827391,10.05,352.9,1.954,1.466,26.56,110.2186,25.46,26.34,24.18,0,111.2,13.03,26.30,314.9
"2016-07-21 00:51:30",1827392,8.97,346,4.872,0.763,26.02,110.2456,25.53,26.36,24.87,0,111.2,13.03,26.37,308.0
"2016-07-21 00:52:00",1827393,7.561,350.8,17.17,3.041,25.84,110.2495,25.54,26.39,25.63,0,111.2,13.03,26.38,312.8
"2016-07-21 00:52:30",1827394,7.391,355.3,10.87,2.737,25.45,110.2616,25.57,26.41,26.13,0,111.2,13.03,26.41,317.3
"2016-07-21 00:53:00",1827395,8.65,353.9,6.752,2.29,26.23,110.2739,25.6,26.45,25.73,0,111.2,13.03,26.44,315.9
"2016-07-21 00:53:30",1827396,5.45,2.059,15.36,2,25.35,110.268,25.58,26.47,26.43,0,111.2,13.03,26.42,324.1
"2016-07-21 00:54:00",1827397,8.85,359.1,13.87,3.128,26.38,110.2509,25.54,26.45,24.92,0,111.2,13.03,26.38,321.1
"2016-07-21 00:54:30",1827398,8.08,2.14,19.94,2.383,26.35,110.2737,25.6,26.46,25.14,0,111.2,13.03,26.44,324.1
"2016-07-21 00:55:00",1827399,10.67,349.6,5.84,2.399,27.14,110.4012,25.93,26.65,22.64,0,111.2,13.03,26.77,311.6
"2016-07-21 00:55:30",1827400,8.26,326,14.08,1.531,27.21,110.5928,26.42,26.93,21.78,0,111.2,13.03,27.26,288.0
"2016-07-21 00:56:00",1827401,6.607,323.7,10.88,1.174,27.27,110.6662,26.61,27.11,21.11,0,111.2,13.03,27.45,285.7
"2016-07-21 00:56:30",1827402,6.298,343.6,8.95,0.94,27.16,110.7128,26.73,27.25,21.02,0,111.2,13.03,27.57,305.6
"2016-07-21 00:57:00",1827403,7.145,356.4,10.11,1.119,27.18,110.7159,26.73,27.33,20.93,0,111.2,13.03,27.58,318.4
"2016-07-21 00:57:30",1827404,6.75,333.4,6.586,1.006,26.89,110.7201,26.75,27.35,21.19,0,111.2,13.03,27.59,295.4
"2016-07-21 00:58:00",1827405,6.339,321.5,9.13,0.979,26.94,110.7215,26.75,27.38,21.63,0,111.2,13.03,27.59,283.5
"2016-07-21 00:58:30",1827406,5.596,318.3,5.011,0.556,27.07,110.7215,26.75,27.42,21.42,0,111.2,13.03,27.59,280.3
"2016-07-21 00:59:00",1827407,7.119,330.2,8.52,1.893,26.87,110.7193,26.74,27.44,21.63,0,111.2,13.03,27.59,292.2
"2016-07-21 00:59:30",1827408,8.8,317.9,6.829,1.557,26.97,110.7103,26.72,27.47,21.48,0,111.2,13.03,27.57,279.9
"2016-07-21 01:00:00",1827409,7.977,299.5,13.69,1.236,27.07,110.7021,26.7,27.48,21.26,0,111.2,13.03,27.54,261.5
"2016-07-21 01:00:30",1827410,6.31,283.1,9.9,0.904,26.89,110.6931,26.68,27.48,21.58,0,111.2,13.03,27.52,245.1
"2016-07-21 01:01:00",1827411,5.766,271.3,10.59,1.158,26.68,110.6951,26.68,27.52,21.46,0,111.2,13.03,27.53,233.3
"2016-07-21 01:01:30",1827412,3.729,263.6,14.48,0.808,27.24,110.6878,26.66,27.5,21.4,0,111.2,13.03,27.51,225.6
"2016-07-21 01:02:00",1827413,2.861,259.3,9.91,0.703,26.71,110.6878,26.66,27.51,21.17,0,111.2,13.03,27.51,221.3
"2016-07-21 01:02:30",1827414,3.308,266.4,7.959,0.59,26.29,110.694,26.68,27.52,21.64,0,111.2,13.03,27.52,228.4
"2016-07-21 01:03:00",1827415,3.193,258.6,15.7,0.411,26.33,110.7035,26.7,27.54,22.11,0,111.2,13.03,27.55,220.6
"2016-07-21 01:03:30",1827416,4.118,282.9,7.805,0.352,26.12,110.6951,26.68,27.54,22.26,0,111.2,13.03,27.53,244.9
"2016-07-21 01:04:00",1827417,3.869,305.5,10.02,1.12,26.95,110.7024,26.7,27.54,21.2,0,111.2,13.03,27.54,267.5
"2016-07-21 01:04:30",1827418,3.649,291.3,12.14,0.639,26.68,110.7305,26.77,27.59,21.31,0,111.2,13.04,27.62,253.3
"2016-07-21 01:05:00",1827419,2.686,331.5,28.93,0.795,26.35,110.7499,26.82,27.62,21.82,0,111.2,13.04,27.67,293.5
"2016-07-21 01:05:30",1827420,4.028,333.8,7.652,1.052,26.86,110.7274,26.76,27.62,21.26,0,111.2,13.03,27.61,295.8
"2016-07-21 01:06:00",1827421,1.434,348.8,48.63,1.194,25.7,110.7471,26.81,27.65,22.79,0,111.2,13.04,27.66,310.8
"2016-07-21 01:06:30",1827422,2.096,325.2,54.56,2.206,25.61,110.6541,26.58,27.6,24.11,0,111.2,13.03,27.42,287.2
"2016-07-21 01:07:00",1827423,2.499,43.42,36.44,1.721,24.74,110.6038,26.45,27.51,25.11,0,111.2,13.03,27.29,5.4
"2016-07-21 01:07:30",1827424,1.652,62.5,9.02,0.386,24.57,110.5866,26.4,27.44,26.7,0,111.2,13.04,27.25,24.5
"2016-07-21 01:08:00",1827425,1.803,53.44,6.29,0.23,24.93,110.5847,26.4,27.39,26.28,0,111.2,13.04,27.24,15.4
"2016-07-21 01:08:30",1827426,1.56,60.7,7.197,0.489,25.22,110.5706,26.36,27.36,26.06,0,111.2,13.04,27.20,22.7
"2016-07-21 01:09:00",1827427,1.103,68.67,15.08,0.711,25.36,110.5529,26.32,27.32,25.63,0,111.2,13.03,27.16,30.7
"2016-07-21 01:09:30",1827428,1.156,78.17,27.08,0.549,25.5,110.549,26.31,27.31,25.61,0,111.2,13.04,27.15,40.2
"2016-07-21 01:10:00",1827429,1.332,70.07,25.89,1.155,25.71,110.5206,26.23,27.27,25.27,0,111.2,13.04,27.08,32.1
"2016-07-21 01:10:30",1827430,0.566,76.72,25.5,0.308,25.75,110.5077,26.2,27.26,25.02,0,111.2,13.03,27.04,38.7
"2016-07-21 01:11:00",1827431,1.119,92.2,24.9,1.368,25.84,110.4855,26.14,27.22,24.93,0,111.2,13.04,26.99,54.2
"2016-07-21 01:11:30",1827432,3.389,92.9,20.17,0.813,26.21,110.4686,26.1,27.18,24.17,0,111.2,13.04,26.94,54.9
"2016-07-21 01:12:00",1827433,1.337,87.1,36.88,0.863,26.32,110.4518,26.06,27.15,23.7,0,111.2,13.04,26.90,49.1
"2016-07-21 01:12:30",1827434,3.348,103.6,14.22,0.773,25.92,110.4417,26.03,27.11,24.25,0,111.2,13.04,26.87,65.6
"2016-07-21 01:13:00",1827435,1.776,74.87,75.98,0.567,26.24,110.4186,25.97,27.09,24.17,0,111.2,13.04,26.81,36.9
"2016-07-21 01:13:30",1827436,1.854,26.9,11.37,0.247,27.24,110.4161,25.96,27.07,22.65,0,111.2,13.03,26.81,348.9
"2016-07-21 01:14:00",1827437,1.473,22.48,11.43,0.208,26.8,110.4012,25.93,27.02,22.53,0,111.2,13.03,26.77,344.5
"2016-07-21 01:14:30",1827438,0.67,338.1,12.93,0.218,26.91,110.3919,25.9,27,22.55,0,111.2,13.03,26.74,300.1
"2016-07-21 01:15:00",1827439,0.303,355.2,7.206,0.201,26.61,110.4181,25.97,26.99,22.64,0,111.2,13.03,26.81,317.2
"2016-07-21 01:15:30",1827440,-0.063,83.4,46.76,0.186,26.43,110.4375,26.02,26.98,23.02,0,111.2,13.03,26.86,45.4
"2016-07-21 01:16:00",1827441,-0.085,158,37.81,0.251,26.28,110.4504,26.05,26.99,23.09,0,111.2,13.03,26.89,120.0
"2016-07-21 01:16:30",1827442,0.421,183.1,21.56,0.476,26.06,110.4518,26.06,27.01,23.56,0,111.2,13.03,26.90,145.1
"2016-07-21 01:17:00",1827443,1.17,209,16.07,0.527,26.19,110.4521,26.06,27.03,23.31,0,111.2,13.03,26.90,171.0
"2016-07-21 01:17:30",1827444,0.83,213.8,28.62,0.355,26.14,110.4518,26.06,27.02,23.39,0,111.2,13.03,26.90,175.8
"2016-07-21 01:18:00",1827445,0.465,198.6,13.64,0.305,25.93,110.4524,26.06,27.04,23.73,0,111.2,13.03,26.90,160.6
"2016-07-21 01:18:30",1827446,0.752,211.9,17.18,0.39,26.02,110.4518,26.06,27.04,23.79,0,111.2,13.03,26.90,173.9
"2016-07-21 01:19:00",1827447,0.25,192.7,23.53,0.282,25.87,110.4524,26.06,27.02,23.92,0,111.2,13.03,26.90,154.7
"2016-07-21 01:19:30",1827448,0.453,117.9,22.42,0.405,25.47,110.4524,26.06,27.03,24.62,0,111.2,13.03,26.90,79.9
"2016-07-21 01:20:00",1827449,0.508,115.5,27.78,0.388,25.46,110.4442,26.04,27.03,24.94,0,111.2,13.04,26.88,77.5
"2016-07-21 01:20:30",1827450,0.018,106,37.49,0.248,25.54,110.4195,25.97,27,24.91,0,111.2,13.04,26.82,68.0
"2016-07-21 01:21:00",1827451,0.78,103.4,9.66,0.385,25.47,110.4184,25.97,27,25.03,0,111.2,13.04,26.81,65.4
"2016-07-21 01:21:30",1827452,0.098,85.5,26.39,0.256,25.49,110.4184,25.97,26.98,25.12,0,111.2,13.04,26.81,47.5
"2016-07-21 01:22:00",1827453,0.614,89.7,9.43,0.295,25.68,110.4196,25.97,26.96,24.94,0,111.2,13.04,26.82,51.7
"2016-07-21 01:22:30",1827454,0.053,50.34,13.08,0.202,25.75,110.4125,25.95,26.96,24.73,0,111.2,13.04,26.80,12.3
"2016-07-21 01:23:00",1827455,-0.143,66.15,21.06,0.109,25.92,110.406,25.94,26.96,24.57,0,111.2,13.04,26.78,28.2
"2016-07-21 01:23:30",1827456,0.053,65.44,10.46,0.094,25.77,110.3931,25.9,26.93,24.43,0,111.2,13.04,26.75,27.4
"2016-07-21 01:24:00",1827457,0.158,60.8,10,0.15,25.71,110.3852,25.88,26.92,24.48,0,111.2,13.04,26.73,22.8
"2016-07-21 01:24:30",1827458,0.07,51.08,13.11,0.297,25.62,110.3853,25.88,26.91,24.67,0,111.2,13.04,26.73,13.1
"2016-07-21 01:25:00",1827459,0.127,47.63,8.86,0.156,25.7,110.3856,25.89,26.91,24.84,0,111.2,13.04,26.73,9.6
"2016-07-21 01:25:30",1827460,0.213,49.67,7.241,0.157,25.71,110.385,25.88,26.92,24.77,0,111.2,13.04,26.73,11.7
"2016-07-21 01:26:00",1827461,0.437,58.91,11.55,0.271,25.62,110.3862,25.89,26.89,24.78,0,111.2,13.04,26.73,20.9
"2016-07-21 01:26:30",1827462,1.035,59.58,9.22,0.279,25.62,110.386,25.89,26.9,24.98,0,111.2,13.04,26.73,21.6
"2016-07-21 01:27:00",1827463,0.994,55.06,10.28,0.319,25.88,110.3787,25.87,26.88,24.84,0,111.2,13.04,26.71,17.1
"2016-07-21 01:27:30",1827464,0.739,35.2,7.609,0.252,25.93,110.3586,25.82,26.87,24.61,0,111.2,13.04,26.66,357.2
"2016-07-21 01:28:00",1827465,0.231,39.06,6.74,0.201,25.93,110.3531,25.8,26.87,24.47,0,111.2,13.04,26.64,1.1
"2016-07-21 01:28:30",1827466,0.405,40.59,10.11,0.218,25.89,110.3534,25.8,26.85,24.46,0,111.2,13.04,26.64,2.6
"2016-07-21 01:29:00",1827467,0.407,42.35,10.65,0.149,25.86,110.354,25.8,26.84,24.52,0,111.2,13.04,26.65,4.3
"2016-07-21 01:29:30",1827468,0.737,43.67,6.138,0.258,25.8,110.3528,25.8,26.84,24.63,0,111.2,13.04,26.64,5.7
"2016-07-21 01:30:00",1827469,0.809,48.39,7.458,0.152,25.74,110.3447,25.78,26.8,24.77,0,111.2,13.04,26.62,10.4
"2016-07-21 01:30:30",1827470,1.097,52.79,7.635,0.244,25.83,110.3301,25.74,26.81,24.74,0,111.2,13.03,26.58,14.8
"2016-07-21 01:31:00",1827471,1.358,48.59,5.085,0.215,25.77,110.3194,25.72,26.8,24.71,0,111.2,13.03,26.56,10.6
"2016-07-21 01:31:30",1827472,1.553,47.13,4.67,0.306,25.66,110.3185,25.71,26.79,25.08,0,111.2,13.03,26.55,9.1
"2016-07-21 01:32:00",1827473,1.585,48.92,6.547,0.316,25.73,110.32,25.72,26.76,25.07,0,111.2,13.03,26.56,10.9
"2016-07-21 01:32:30",1827474,1.102,48.72,4.403,0.168,26.01,110.3191,25.71,26.76,24.91,0,111.2,13.03,26.56,10.7
"2016-07-21 01:33:00",1827475,0.908,48.21,6.972,0.309,25.72,110.305,25.68,26.74,24.85,0,111.2,13.03,26.52,10.2
"2016-07-21 01:33:30",1827476,0.938,52.75,7.036,0.253,25.85,110.2859,25.63,26.73,24.95,0,111.2,13.03,26.47,14.8
"2016-07-21 01:34:00",1827477,0.824,55.36,10.69,0.176,25.76,110.286,25.63,26.71,24.95,0,111.2,13.03,26.47,17.4
"2016-07-21 01:34:30",1827478,0.306,49.93,14.19,0.189,25.96,110.2854,25.63,26.69,24.72,0,111.2,13.03,26.47,11.9
"2016-07-21 01:35:00",1827479,0.247,56.29,14.02,0.158,26.15,110.2741,25.6,26.67,24.27,0,111.2,13.03,26.44,18.3
"2016-07-21 01:35:30",1827480,0.32,68.51,9.63,0.176,25.99,110.2551,25.55,26.65,24.42,0,111.2,13.03,26.39,30.5
"2016-07-21 01:36:00",1827481,0.241,57.71,15.61,0.293,26.03,110.2529,25.54,26.64,24.39,0,111.2,13.03,26.39,19.7
"2016-07-21 01:36:30",1827482,0.086,63.8,11.49,0.15,26.19,110.2517,25.54,26.62,24.09,0,111.2,13.04,26.38,25.8
"2016-07-21 01:37:00",1827483,-0.036,49.57,24.58,0.145,26.09,110.2544,25.55,26.61,24.13,0,111.2,13.04,26.39,11.6
"2016-07-21 01:37:30",1827484,0.177,46.86,8.35,0.153,25.78,110.2526,25.54,26.61,24.62,0,111.2,13.04,26.38,8.9
"2016-07-21 01:38:00",1827485,0.373,58.37,11.23,0.174,25.77,110.2523,25.54,26.58,24.83,0,111.2,13.04,26.38,20.4
"2016-07-21 01:38:30",1827486,0.212,66.51,12.02,0.221,25.62,110.253,25.54,26.58,25.01,0,111.2,13.04,26.39,28.5
"2016-07-21 01:39:00",1827487,0.16,60.87,22.36,0.146,25.65,110.2499,25.54,26.58,25.03,0,111.2,13.04,26.38,22.9
"2016-07-21 01:39:30",1827488,0.064,56.62,17.32,0.161,25.67,110.238,25.51,26.55,24.98,0,111.2,13.04,26.35,18.6
"2016-07-21 01:40:00",1827489,0.109,51.72,17.8,0.126,25.76,110.2301,25.49,26.56,24.86,0,111.2,13.04,26.33,13.7
"2016-07-21 01:40:30",1827490,0.206,64.29,10.09,0.195,25.68,110.223,25.47,26.54,24.84,0,111.2,13.04,26.31,26.3
"2016-07-21 01:41:00",1827491,0.462,68.18,8.81,0.203,25.61,110.2213,25.46,26.55,25.08,0,111.2,13.04,26.30,30.2
"2016-07-21 01:41:30",1827492,0.662,71.07,11.71,0.142,25.67,110.2192,25.46,26.53,25.08,0,111.2,13.04,26.30,33.1
"2016-07-21 01:42:00",1827493,0.501,50.89,24.57,0.372,25.62,110.2223,25.47,26.52,25.1,0,111.2,13.04,26.31,12.9
"2016-07-21 01:42:30",1827494,0.03,65.69,38.61,0.298,25.53,110.2232,25.47,26.5,25.37,0,111.2,13.04,26.31,27.7
"2016-07-21 01:43:00",1827495,0.184,57.84,28.23,0.256,25.63,110.2235,25.47,26.5,25.29,0,111.2,13.04,26.31,19.8
"2016-07-21 01:43:30",1827496,0.199,52.65,25.51,0.243,25.75,110.2251,25.47,26.48,25.25,0,111.2,13.04,26.31,14.7
"2016-07-21 01:44:00",1827497,0.16,70.87,29.2,0.248,25.89,110.22,25.46,26.47,24.94,0,111.2,13.04,26.30,32.9
"2016-07-21 01:44:30",1827498,0.358,62.1,12.95,0.213,25.91,110.216,25.45,26.47,24.8,0,111.2,13.04,26.29,24.1
"2016-07-21 01:45:00",1827499,0.621,28.43,14.4,0.474,25.78,110.2115,25.44,26.46,25.08,0,111.2,13.04,26.28,350.4
"2016-07-21 01:45:30",1827500,1.389,17.29,6.689,0.659,25.82,110.2081,25.43,26.46,25.35,0,111.2,13.04,26.27,339.3
"2016-07-21 01:46:00",1827501,2.286,15.37,4.381,0.27,25.81,110.2057,25.42,26.46,25.74,0,111.2,13.04,26.26,337.4
"2016-07-21 01:46:30",1827502,2.371,15.4,2.861,0.172,25.84,110.2023,25.41,26.43,26.11,0,111.2,13.04,26.25,337.4
"2016-07-21 01:47:00",1827503,2.486,13.4,2.423,0.189,25.81,110.2012,25.41,26.44,26.16,0,111.2,13.04,26.25,335.4